Location: Poughquag
(41.6090°N, 73.6820°W)
Time: 03:42:04
(UTC-04:00)

S-56A Canister/Altair - Pass Details

Date: 30 May 2020
Orbit: 633 x 2499 km, 38.9° (Epoch: 06 July)

Event Time Altitude Azimuth Distance (km) Brightness Sun altitude
Rises 03:41:44 0° 189° (S) 3,127 - -15.4°
Exits shadow 03:44:22 - 170° (S) 2,530 9.8 -15.1°
Reaches altitude 10° 03:45:09 10° 163° (SSE) 2,420 9.8 -15.0°
Maximum altitude 03:47:56 14° 133° (SE) 2,360 10.0 -14.6°
Drops below altitude 10° 03:51:08 10° 104° (ESE) 2,889 10.8 -14.2°
Sets 03:55:58 0° 82° (E) 4,277 12.2 -13.6°
